Weather History for Sarasota, FL

Change the Weather History Date:

Wednesday, April 9, 2014

  Actual Average Record
Temperature  
Mean Temperature 65 °F 70 °F  
Max Temperature 72 °F 80 °F 88 °F (1967)
Min Temperature 58 °F 61 °F 45 °F (1971)
Degree Days  
Heating Degree Days 0 0  
Month to date heating degree days 0 8  
Since 1 July heating degree days 345 475  
Cooling Degree Days 0 6  
Month to date cooling degree days 48 46  
Year to date cooling degree days 250 250  
Growing Degree Days 15 (Base 50)    
Moisture  
Dew Point 52 °F    
Average Humidity 60    
Maximum Humidity 78    
Minimum Humidity 44    
Precipitation  
Precipitation 0.01 in 0.08 in 2.15 in (1920)
Month to date precipitation 0.65 0.77  
Year to date precipitation 10.74 9.82  
Sea Level Pressure  
Sea Level Pressure 30.04 in    
Wind  
Wind Speed 14 mph (NW)    
Max Wind Speed 28 mph    
Max Gust Speed 35 mph    
Visibility 10 miles    
Events Rain    
T = Trace of Precipitation, MM = Missing Value Source: NWS Daily Summary

Daily Weather History Graph

Daily Weather History Graph

Search for Another Location

Airport:

Trip Planner

Search our weather history database for the weather conditions in past years. The results will help you decide how hot, cold, wet, or windy it might be!

Date:

Astronomy

Apr. 09, 2014 Rise Set
Actual Time 7:12 AM EDT 7:51 PM EDT
Civil Twilight 6:48 AM EDT 8:15 PM EDT
Nautical Twilight 6:20 AM EDT 8:43 PM EDT
Astronomical Twilight 5:52 AM EDT 9:11 PM EDT
Moon 3:04 PM EDT (4/9) 3:33 AM EDT (4/9)
Length of Visible Light 13h 27m
Length of Day
12h 39m
Waxing Gibbous, 71% of the Moon is Illuminated
Apr 9
Waxing Gibbous
Apr 15
Full
Apr 22
Last Quarter
Apr 29
New
May 6
First Quarter

Hourly Weather History & Observations

Time (EDT) Temp. Dew Point Humidity Pressure Visibility Wind Dir Wind Speed Gust Speed Precip Events Conditions
12:53 AM 68.0 °F 52.0 °F 56% 29.91 in 10.0 mi WNW 21.9 mph 32.2 mph N/A   Overcast
1:53 AM 66.9 °F 51.1 °F 57% 29.91 in 10.0 mi WNW 19.6 mph 33.4 mph N/A   Scattered Clouds
2:53 AM 66.9 °F 52.0 °F 59% 29.90 in 10.0 mi WNW 18.4 mph 26.5 mph N/A   Scattered Clouds
3:53 AM 66.0 °F 52.0 °F 60% 29.92 in 10.0 mi WNW 28.8 mph 34.5 mph N/A   Mostly Cloudy
4:53 AM 64.9 °F 53.1 °F 65% 29.90 in 10.0 mi West 18.4 mph - N/A   Clear
5:53 AM 63.0 °F 53.1 °F 70% 29.92 in 10.0 mi NW 12.7 mph - 0.01 in   Partly Cloudy
6:53 AM 64.0 °F 50.0 °F 60% 29.96 in 10.0 mi NW 15.0 mph 25.3 mph N/A   Scattered Clouds
7:53 AM 64.9 °F 51.1 °F 61% 29.98 in 10.0 mi NW 15.0 mph 21.9 mph N/A   Partly Cloudy
8:53 AM 66.0 °F 51.1 °F 59% 30.01 in 10.0 mi WNW 17.3 mph 26.5 mph 0.00 in   Overcast
9:53 AM 64.9 °F 54.0 °F 68% 30.04 in 10.0 mi NNW 13.8 mph 23.0 mph 0.00 in Rain Light Rain
10:53 AM 69.1 °F 51.1 °F 53% 30.07 in 10.0 mi NNW 17.3 mph 26.5 mph 0.00 in   Clear
11:53 AM 70.0 °F 50.0 °F 49% 30.09 in 10.0 mi NNW 20.7 mph 26.5 mph N/A   Partly Cloudy
12:53 PM 70.0 °F 50.0 °F 49% 30.09 in 10.0 mi NW 17.3 mph 26.5 mph N/A   Scattered Clouds
1:53 PM 70.0 °F 46.0 °F 42% 30.08 in 10.0 mi NW 18.4 mph - N/A   Clear
2:53 PM 69.1 °F 48.0 °F 47% 30.08 in 10.0 mi WNW 20.7 mph - N/A   Clear
3:53 PM 70.0 °F 51.1 °F 51% 30.06 in 10.0 mi NNW 16.1 mph 27.6 mph N/A   Partly Cloudy
4:53 PM 69.1 °F 52.0 °F 54% 30.06 in 10.0 mi NW 16.1 mph - N/A   Clear
5:53 PM 68.0 °F 52.0 °F 56% 30.06 in 10.0 mi NW 15.0 mph - N/A   Clear
6:53 PM 66.9 °F 53.1 °F 61% 30.08 in 10.0 mi NNW 10.4 mph - N/A   Clear
7:53 PM 63.0 °F 52.0 °F 67% 30.10 in 10.0 mi NNW 11.5 mph - N/A   Clear
8:53 PM 62.1 °F 53.1 °F 72% 30.12 in 10.0 mi NNW 5.8 mph - N/A   Clear
9:53 PM 61.0 °F 52.0 °F 72% 30.15 in 10.0 mi NNW 4.6 mph - N/A   Clear
10:53 PM 60.1 °F 53.1 °F 78% 30.17 in 10.0 mi North 4.6 mph - N/A   Clear
11:53 PM 60.1 °F 53.1 °F 78% 30.18 in 10.0 mi NNW 3.5 mph - N/A   Clear